Regional Weather Roundup
Issued by NWS

Home | Current Version | Previous Version | Graphics & Text | Print | Product List | Glossary On
Versions: 1 2 3 4 5 6 7 8 9 10 11 12 13 14 15 16 17 18 19 20 21 22 23 24 25 26 27 28 29 30 31 32 33 34 35 36 37 38 39 40 41 42 43 44 45 46 47 48 49 50
618
ASUS43 KLSX 052357
RWRMO

WEATHER SUMMARY FOR MISSOURI
NATIONAL WEATHER SERVICE SPRINGFIELD MO
700 PM CDT THU MAY 05 2016

NOTE: "FAIR" INDICATES FEW OR NO CLOUDS BELOW 12,000 FEET WITH NO
       SIGNIFICANT WEATHER AND/OR OBSTRUCTIONS TO VISIBILITY.
       CURRENT SKY AND/OR WEATHER CONDITIONS ARE NOT AVAILABLE FOR
       CHILLICOTHE AND FARMINGTON.

MOZ001>031-035>038-043-044-053-054-060100-
...NORTHERN AND WESTERN MISSOURI...

CITY           SKY/WX    TMP DP  RH WIND       PRES   REMARKS
KANSAS CTY INT MOSUNNY   71  42  35 N5        30.03S
6HR MIN TEMP:  69; 6HR MAX TEMP:  73;

LEE`S SUMMIT   SUNNY     69  39  33 N6        30.03S
6HR MIN TEMP:  69; 6HR MAX TEMP:  73;

ST JOSEPH      SUNNY     73  38  27 NE3       30.02F
6HR MIN TEMP:  70; 6HR MAX TEMP:  74;

CHILLICOTHE      N/A     72  37  28 CALM      30.03F
6HR MIN TEMP:  67; 6HR MAX TEMP:  73;


$$
MOZ066>068-077>081-088>096-101>105-060100-
...SOUTHWEST MISSOURI...

CITY           SKY/WX    TMP DP  RH WIND       PRES   REMARKS
SPRINGFIELD    SUNNY     68  31  25 N10       30.01F
6HR MIN TEMP:  68; 6HR MAX TEMP:  71;

JOPLIN         SUNNY     69  42  37 N6        30.02F
6HR MIN TEMP:  69; 6HR MAX TEMP:  73;

BRANSON        MOSUNNY   68  32  26 N14G25    30.01F

$$
MOZ032>034-039>042-045>050-055>058-069>072-060100-
...CENTRAL MISSOURI...

CITY           SKY/WX    TMP DP  RH WIND       PRES   REMARKS
COLUMBIA       NOT AVBL
JEFFERSON CITY SUNNY     68  34  28 N8        30.01F
6HR MIN TEMP:  65; 6HR MAX TEMP:  70;

ROLLA          SUNNY     64  39  39 N7        30.00S
6HR MIN TEMP:  63; 6HR MAX TEMP:  66;

SEDALIA        SUNNY     69  33  26 N7        30.03F
6HR MIN TEMP:  68; 6HR MAX TEMP:  73;

WARRENSBURG    SUNNY     68  34  28 N5        30.02S

$$
MOZ051-052-059>065-060100-
...EAST CENTRAL MISSOURI...

CITY           SKY/WX    TMP DP  RH WIND       PRES   REMARKS
ST LOUIS INTL  PTCLDY    64  42  44 NW6       30.00F
6HR MIN TEMP:  62; 6HR MAX TEMP:  68;


$$
MOZ072>076-082>087-097>100-106>115-060100-
...SOUTH CENTRAL AND SOUTHEAST MISSOURI...

CITY           SKY/WX    TMP DP  RH WIND       PRES   REMARKS
CAPE GIRARDEAU PTCLDY    62  44  51 N12       30.00R
6HR MIN TEMP:  61; 6HR MAX TEMP:  65;

POPLAR BLUFF   CLEAR     65  45  48 NE9       29.98R
6HR MIN TEMP:  65; 6HR MAX TEMP:  70;

WEST PLAINS    SUNNY     66  31  27 N9G18     30.00F
6HR MIN TEMP:  66; 6HR MAX TEMP:  71;


$$



USA.gov is the U.S. government's official web portal to all federal, state and local government web resources and services.